Weather History for Marathon, FL

Change the Weather History Date:

Tuesday, October 30, 2012

  Actual Average Record
Temperature  
Mean Temperature 71 °F 78 °F  
Max Temperature 74 °F 83 °F 89 °F (2002)
Min Temperature 68 °F 73 °F 64 °F (2008)
Degree Days  
Heating Degree Days 0 0  
Month to date heating degree days 0 0  
Since 1 July heating degree days 0 0  
Cooling Degree Days 6 13  
Month to date cooling degree days 508 472  
Year to date cooling degree days 4751 4426  
Growing Degree Days 20 (Base 50)    
Moisture  
Dew Point 52 °F    
Average Humidity 51    
Maximum Humidity 57    
Minimum Humidity 44    
Precipitation  
Precipitation 0.00 in 0.13 in 0.18 in (2003)
Month to date precipitation 3.67 4.65  
Year to date precipitation 43.80 41.20  
Snow  
Snow 0.00 in - - ()
Month to date snowfall 0.0  
Since 1 July snowfall 0.0  
Since 1 September snowfall 0.0  
Snow Depth 0.00 in    
Sea Level Pressure  
Sea Level Pressure 29.95 in    
Wind  
Wind Speed 10 mph (NW)    
Max Wind Speed 16 mph    
Max Gust Speed 25 mph    
Visibility 10 miles    
Events      
T = Trace of Precipitation, MM = Missing Value Source: NWS Daily Summary

Daily Weather History Graph

Daily Weather History Graph

Search for Another Location

Airport:

Trip Planner

Search our weather history database for the weather conditions in past years. The results will help you decide how hot, cold, wet, or windy it might be!

Date:

Astronomy

Oct. 30, 2012 Rise Set
Actual Time 7:30 AM EDT 6:44 PM EDT
Civil Twilight 7:06 AM EDT 7:08 PM EDT
Nautical Twilight 6:39 AM EDT 7:35 PM EDT
Astronomical Twilight 6:13 AM EDT 8:02 PM EDT
Moon 7:22 PM EDT (10/30) 8:08 AM EDT (10/30)
Length of Visible Light 12h 01m
Length of Day
11h 14m
Full, 99% of the Moon is Illuminated
Oct 30
Full
Nov 6
Last Quarter
Nov 13
New
Nov 20
First Quarter
Nov 28
Full

Hourly Weather History & Observations

Time (EDT) Temp. Dew Point Humidity Pressure Visibility Wind Dir Wind Speed Gust Speed Precip Events Conditions
12:53 AM 70.0 °F 51.1 °F 51% 29.89 in 10.0 mi WNW 13.8 mph 21.9 mph N/A   Clear
1:53 AM 70.0 °F 52.0 °F 53% 29.88 in 10.0 mi WNW 11.5 mph 20.7 mph N/A   Clear
3:53 AM 71.1 °F 50.0 °F 47% 29.87 in 10.0 mi West 11.5 mph 18.4 mph N/A   Overcast
4:53 AM 71.1 °F 50.0 °F 47% 29.87 in 10.0 mi WNW 12.7 mph 19.6 mph N/A   Mostly Cloudy
5:53 AM 72.0 °F 48.9 °F 44% 29.88 in 10.0 mi WNW 15.0 mph 23.0 mph N/A   Overcast
6:53 AM 71.1 °F 52.0 °F 51% 29.90 in 10.0 mi WNW 13.8 mph 21.9 mph N/A   Overcast
7:53 AM 72.0 °F 50.0 °F 46% 29.92 in 10.0 mi West 11.5 mph 24.2 mph N/A   Overcast
8:53 AM 72.0 °F 52.0 °F 49% 29.94 in 10.0 mi WNW 13.8 mph 19.6 mph N/A   Overcast
9:53 AM 68.0 °F 52.0 °F 56% 29.96 in 10.0 mi NNE 13.8 mph - N/A   Overcast
10:53 AM 68.0 °F 52.0 °F 56% 29.97 in 10.0 mi NNE 9.2 mph - N/A   Mostly Cloudy
11:53 AM 71.1 °F 52.0 °F 51% 29.98 in 10.0 mi North 10.4 mph - N/A   Partly Cloudy
12:53 PM 73.0 °F 53.1 °F 49% 29.97 in 10.0 mi Variable 6.9 mph - N/A   Clear
1:53 PM 73.0 °F 53.1 °F 49% 29.96 in 10.0 mi North 8.1 mph - N/A   Clear
2:53 PM 72.0 °F 53.1 °F 51% 29.95 in 10.0 mi NNW 6.9 mph - N/A   Clear
3:53 PM 71.1 °F 54.0 °F 55% 29.94 in 10.0 mi NNW 5.8 mph - N/A   Clear
4:53 PM 72.0 °F 55.0 °F 55% 29.93 in 10.0 mi West 5.8 mph - N/A   Clear
5:53 PM 71.1 °F 55.9 °F 59% 29.93 in 10.0 mi WNW 8.1 mph - N/A   Clear
6:53 PM 71.1 °F 51.1 °F 49% 29.95 in 10.0 mi NW 11.5 mph 21.9 mph N/A   Clear
8:53 PM 70.0 °F 51.1 °F 51% 30.00 in 10.0 mi NW 8.1 mph - N/A   Clear
9:53 PM 70.0 °F 50.0 °F 49% 30.03 in 10.0 mi WNW 6.9 mph - N/A   Partly Cloudy
10:53 PM 70.0 °F 51.1 °F 51% 30.04 in 10.0 mi WNW 9.2 mph - N/A   Partly Cloudy
11:53 PM 69.1 °F 50.0 °F 51% 30.04 in 10.0 mi West 6.9 mph - N/A   Clear